Flag for Germany Weather past 2 weeks in Meissen, Saxony, Germany

Now
91 °F

Sunny.


Feels Like: 89 °F
Forecast: 70 / 93 °F
Wind: 6 mph from Southeast

Location: Dresden-Klotzsche

Current Time: Jul 3, 2015 at 5:39:57 PM

Latest Report: Jul 3, 2015 at 5:20 PM


Visibility: 10 mi

Pressure: 30.24 "Hg

Humidity: 30%

Dew point: 55 °F

Location of MeissenLocation

Historic Weather in Meissen — Graph

°F

Meissen temperature yesterday

Maximum temperature yesterday: 86 °F (at 3:50 PM)
Minimum temperature yesterday: 64 °F (at 2:50 AM)
Average temperature yesterday: 75 °F

Past Weeks' High & Low Weather Summary

 TemperatureHumidityPressure
High91 °F (Jul 3, 4:20 PM)100% (Jun 23, 3:20 AM)30.30 "Hg (Jun 23, 3:20 AM)
Low48 °F (Jun 19, 8:20 AM)28% (Jul 1, 5:20 PM)29.65 "Hg (Jun 23, 12:50 AM)
Average62 °F69%30.07 "Hg
* Reported Jun 18 4:20 PM — Jul 3 4:20 PM, Meissen, Weather by CustomWeather, © 2015

Note: Actual official high and low records may vary slightly from our data, if they occured in-between our weather recording intervals... More about our weather records

Advertising

Meissen weather history for previous 24 hours

 ConditionsComfort  
Time TempWeatherWind HumidityBarometerVisibility
4:20 PM
Fri, Jul 3
91 °FSunny.5 mph30%30.24 "Hg10 mi
3:50 PM90 °FSunny.9 mph31%30.24 "Hg10 mi
3:20 PM90 °FSunny.9 mph31%30.24 "Hg10 mi
2:50 PM90 °FSunny.12 mph29%30.24 "Hg10 mi
2:20 PM88 °FSunny.7 mph31%30.27 "Hg10 mi
1:50 PM90 °FSunny.6 mph31%30.27 "Hg10 mi
1:20 PM88 °FSunny.6 mph29%30.27 "Hg10 mi
12:50 PM88 °FSunny.7 mph31%30.27 "Hg10 mi
12:20 PM86 °FSunny.7 mph31%30.27 "Hg10 mi
11:50 AM86 °FSunny.8 mph33%30.27 "Hg10 mi
11:20 AM84 °FSunny.8 mph35%30.30 "Hg10 mi
10:50 AM82 °FSunny.9 mph37%30.27 "Hg10 mi
10:20 AM81 °FSunny.8 mph39%30.27 "Hg10 mi
9:50 AM79 °FSunny.9 mph39%30.27 "Hg10 mi
9:20 AM79 °FSunny.13 mph42%30.27 "Hg10 mi
8:50 AM77 °FSunny.12 mph44%30.27 "Hg10 mi
8:20 AM75 °FSunny.13 mph44%30.27 "Hg10 mi
7:50 AM75 °FSunny.12 mph44%30.27 "Hg10 mi
7:20 AM73 °FSunny.13 mph50%30.27 "Hg10 mi
6:50 AM72 °FSunny.12 mph53%30.27 "Hg10 mi
6:20 AM70 °FSunny.12 mph53%30.27 "Hg10 mi
5:50 AM68 °FClear.12 mph56%30.27 "Hg10 mi
5:20 AM68 °FClear.10 mph56%30.27 "Hg10 mi
4:50 AM68 °FClear.10 mph56%30.24 "Hg10 mi
4:20 AM68 °FClear.10 mph56%30.24 "Hg10 mi
3:50 AM68 °FClear.10 mph56%30.24 "Hg10 mi
3:20 AM70 °FClear.9 mph53%30.24 "Hg10 mi
2:50 AM70 °FClear.9 mph53%30.24 "Hg10 mi
2:20 AM70 °FClear.9 mph53%30.24 "Hg10 mi
1:50 AM70 °FClear.7 mph53%30.24 "Hg10 mi
1:20 AM68 °FClear.7 mph60%30.24 "Hg10 mi
12:50 AM68 °FClear.6 mph60%30.24 "Hg10 mi
12:20 AM70 °FClear.7 mph57%30.24 "Hg10 mi
11:50 PM
Thu, Jul 2
72 °FClear.5 mph53%30.24 "Hg10 mi
11:20 PM73 °FClear.7 mph50%30.24 "Hg10 mi
10:50 PM73 °FClear.8 mph47%30.24 "Hg10 mi
10:20 PM75 °FSunny.8 mph47%30.24 "Hg10 mi
9:50 PM75 °FSunny.9 mph44%30.24 "Hg10 mi
9:20 PM77 °FSunny.9 mph42%30.24 "Hg10 mi
8:50 PM79 °FSunny.8 mph39%30.24 "Hg10 mi
8:20 PM81 °FSunny.12 mph37%30.24 "Hg10 mi
7:50 PM81 °FSunny.13 mph37%30.24 "Hg10 mi
7:20 PM82 °FSunny.13 mph32%30.24 "Hg10 mi
6:50 PM82 °FSunny.14 mph32%30.24 "Hg10 mi
6:20 PM84 °FPassing clouds.14 mph31%30.21 "HgN/A
5:50 PM84 °FPassing clouds.15 mph31%30.21 "HgN/A
5:20 PM86 °FPassing clouds.15 mph31%30.21 "HgN/A
Weather by CustomWeather, © 2015

See weather overviewHow to use our weather pages